User: anonymous   Login
Location: Unspecified
(0.0000°N, 0.0000°E)
Time: 16:31:36
(UTC+00:00)
Language:

Tiros 8 - Orbit

View from above orbital plane
View from above orbital plane
View from above satellite
View from above satellite

Ground track
Ground track

The orbit data is extracted from the following two-line orbital elements,

1   716U 63054A   19016.17184206 -.00000090  00000-0  15980-4 0  9995
2   716  58.4965 311.3763 0025719  26.3662 333.8678 14.69467683938323
Epoch (UTC): 16 January 2019 04:07:27
Eccentricity: 0.0025719
inclination: 58.4965°
perigee height: 644 km
apogee height: 681 km
right ascension of ascending node: 311.3763°
argument of perigee: 26.3662°
revolutions per day: 14.69467683
mean anomaly at epoch: 333.8678°
orbit number at epoch: 93832

The dashed part of the orbit path shows where the satellite is in the earth's shadow,  

DLR